This is the latest recevied weather packets stored in our database for station/object KK7ISX. If no packets are shown the sender has not sent any weather packets the latest 10 day(s).
| Time | Temp. | Humidity | Pressure | Rain* | Wind** | Luminosity | Snow |
|---|---|---|---|---|---|---|---|
| 1777251103 | 13.33° C | 38% | 1007.3 hPa | 0 mm | - | 112 W/m² | - |
| 1777250799 | 13.89° C | 37% | 1007.2 hPa | 0 mm | - | 162 W/m² | - |
| 1777250497 | 13.33° C | 36% | 1007 hPa | 0 mm | - | 172 W/m² | - |
| 1777250192 | 13.89° C | 38% | 1007.1 hPa | 0 mm | - | 185 W/m² | - |
| 1777249889 | 13.89° C | 36% | 1007.1 hPa | 0 mm | - | 196 W/m² | - |
| 1777249585 | 14.44° C | 36% | 1007 hPa | 0 mm | - | 205 W/m² | - |
| 1777249281 | 13.89° C | 37% | 1006.9 hPa | 0 mm | - | 214 W/m² | - |
| 1777248979 | 13.89° C | 36% | 1007 hPa | 0 mm | - | 211 W/m² | - |
| 1777248674 | 13.89° C | 36% | 1006.7 hPa | 0 mm | - | 233 W/m² | - |
| 1777248371 | 13.89° C | 37% | 1006.9 hPa | 0 mm | - | 248 W/m² | - |
| 1777248068 | 13.89° C | 36% | 1006.8 hPa | 0 mm | - | 259 W/m² | - |
| 1777247766 | 13.89° C | 37% | 1006.7 hPa | 0 mm | - | 272 W/m² | - |
| 1777247463 | 13.33° C | 37% | 1006.9 hPa | 0 mm | - | 290 W/m² | - |
| 1777247161 | 13.89° C | 36% | 1006.6 hPa | 0 mm | - | 308 W/m² | - |
| 1777246858 | 13.89° C | 37% | 1006.7 hPa | 0 mm | - | 319 W/m² | - |
| 1777246554 | 13.89° C | 35% | 1006.6 hPa | 0 mm | - | 328 W/m² | - |
| 1777246251 | 13.89° C | 35% | 1006.7 hPa | 0 mm | - | 345 W/m² | - |
| 1777245949 | 13.89° C | 35% | 1006.6 hPa | 0 mm | - | 359 W/m² | - |
| 1777245647 | 14.44° C | 35% | 1006.8 hPa | 0 mm | - | 381 W/m² | - |
| 1777245344 | 13.89° C | 35% | 1006.7 hPa | 0 mm | - | 422 W/m² | - |
| 1777245044 | 13.89° C | 34% | 1006.8 hPa | 0 mm | - | 465 W/m² | - |
| 1777244740 | 15° C | 32% | 1006.6 hPa | 0 mm | - | 453 W/m² | - |
| 1777244437 | 13.89° C | 33% | 1006.5 hPa | 0 mm | - | 445 W/m² | - |
| 1777244133 | 13.33° C | 33% | 1006.6 hPa | 0 mm | - | 449 W/m² | - |
| 1777243832 | 13.89° C | 32% | 1006.7 hPa | 0 mm | - | 458 W/m² | - |
* Rain latest hour (hover to see other rain measurements)
** Current wind speed in m/s (hover to see current wind gust speed)